Theta_e
323 322 322 322 322 323 323 323 323 321 322 321 321 322 324 325 324 316 302 313 316 345 340 336 326 324 324 320 333 331 310 308 313 315 318 328 324 328 335 328 330 331 329 331 337
322 322 321 321 321 322 322 322 322 322 322 321 321 322 324 324 314 307 322 338 348 351 315 312 310 315 308 316 327 317 309 313 322 323 321 327 325 328 327 326 326 327 333 336 337
321 321 321 321 321 322 322 322 322 321 321 321 320 323 323 322 305 305 339 343 346 342 313 311 310 309 305 322 324 322 316 324 325 326 326 324 326 329 324 320 325 324 328 333 335
321 321 321 321 322 323 323 322 321 320 320 321 322 323 324 313 301 312 348 346 352 324 311 311 310 306 313 318 327 320 329 325 328 328 328 324 330 325 325 327 330 330 332 333 333
322 321 322 321 322 322 322 322 321 320 321 321 322 323 316 302 302 324 353 350 321 312 310 310 307 319 318 321 325 323 327 329 330 329 329 329 326 326 326 332 333 333 333 332 333
321 321 321 321 321 321 322 321 319 319 321 322 322 323 312 295 307 329 333 320 312 310 309 309 309 320 321 322 322 327 327 326 327 327 327 324 324 328 328 333 331 331 330 332 332
320 320 320 320 320 320 319 318 318 319 321 322 323 322 311 307 319 323 315 310 311 310 307 310 319 312 321 320 328 323 319 322 324 324 323 326 319 322 329 331 329 329 329 331 332
320 320 320 319 318 317 315 315 317 321 321 323 324 315 304 317 318 315 311 307 309 308 308 310 321 323 320 325 323 315 320 311 321 324 324 321 312 322 328 329 326 328 329 330 332
319 319 319 318 316 315 314 315 320 324 326 325 312 309 306 324 317 317 310 308 308 306 307 316 317 320 320 311 306 310 304 311 316 324 321 318 311 322 327 327 325 326 327 329 330
318 318 318 316 316 315 314 317 327 324 322 323 321 304 308 309 316 316 310 311 307 306 307 306 303 305 309 305 293 301 303 312 311 319 320 316 314 319 322 323 325 324 326 327 328
317 317 317 316 316 314 310 311 303 303 312 306 306 306 309 314 318 312 312 309 305 303 298 299 298 297 305 310 307 306 306 310 316 322 318 315 314 316 320 320 322 323 323 323 327
317 316 316 316 314 313 307 299 306 309 303 309 313 311 312 311 308 308 311 307 301 297 297 296 296 301 304 309 309 307 307 309 314 321 317 315 314 318 319 320 321 322 323 323 324
316 316 315 314 313 309 308 308 312 306 297 302 306 309 311 313 308 308 310 304 300 296 295 294 298 304 303 304 306 305 305 308 309 318 318 315 310 314 320 321 321 323 325 325 323
316 316 314 312 308 308 309 313 312 309 292 297 300 309 311 312 306 315 309 305 298 298 296 295 300 300 297 298 306 298 310 312 315 309 301 312 299 305 313 315 319 320 323 325 324
316 315 313 311 305 306 309 310 309 302 284 300 302 311 310 306 306 306 308 305 299 298 296 295 297 296 296 298 308 301 311 311 315 307 304 307 302 304 310 309 315 320 321 324 326
315 314 312 309 307 310 312 311 303 292 285 299 304 303 303 303 302 304 304 305 304 299 296 297 301 300 300 301 307 310 310 308 306 305 296 302 304 302 305 310 313 318 321 323 327
313 311 310 312 307 311 312 301 292 288 298 298 296 300 300 300 301 302 300 298 295 290 290 295 297 299 300 294 298 303 298 293 293 294 293 297 301 304 309 312 317 315 321 323 327
311 309 308 311 310 312 304 296 284 293 294 300 300 298 299 300 299 300 298 296 297 293 289 290 290 297 300 298 295 300 296 293 287 288 291 298 295 301 313 317 317 320 323 325 327
309 306 306 310 312 310 299 289 288 291 297 299 298 294 294 298 299 297 296 296 299 296 292 288 291 299 300 300 299 294 291 294 291 290 292 295 301 306 314 315 318 317 322 324 327
307 305 310 314 313 304 299 292 293 298 302 299 293 295 293 296 295 294 295 298 299 299 298 293 289 296 299 300 299 297 300 294 292 288 287 293 297 297 306 313 315 318 319 324 327
304 306 312 314 306 301 294 294 298 304 304 299 295 296 295 296 294 293 296 299 301 298 298 293 292 294 296 294 295 296 294 291 294 292 289 288 295 305 307 312 315 316 320 324 326
301 301 313 309 299 293 294 296 301 304 305 302 301 300 298 297 294 294 295 301 303 299 296 297 291 290 294 297 299 295 294 294 291 289 292 292 296 312 313 312 315 317 319 323 328
300 301 313 308 294 295 300 303 305 305 305 303 300 302 300 297 294 296 298 305 306 300 297 297 292 288 291 292 297 295 294 291 293 294 293 292 295 311 317 317 317 318 320 323 327
303 300 305 304 300 298 297 299 301 308 305 305 303 303 300 295 295 298 296 303 304 306 321 305 290 293 292 292 296 297 300 296 295 292 292 295 298 306 314 316 319 320 320 321 325
301 298 299 297 299 299 297 299 301 301 306 306 303 303 300 294 297 293 297 301 303 314 304 298 292 292 294 296 302 301 302 298 297 296 296 297 300 305 311 315 318 320 321 322 324
298 296 298 294 297 297 298 297 301 302 303 301 302 305 304 297 299 299 299 299 298 304 302 298 296 294 297 298 301 301 302 301 301 299 299 299 301 308 314 317 318 319 322 323 324
301 302 300 295 294 293 294 298 301 303 305 307 306 304 304 305 305 306 306 305 305 301 300 297 298 296 294 301 300 295 300 302 301 301 302 298 303 312 315 317 317 319 324 324 325
Wind_Speed
15 15 15 15 15 15 14 14 13 11 9 9 9 9 9 9 10 3 5 6 6 11 6 6 3 2 3 2 3 2 4 1 3 3 2 4 2 4 2 6 2 1 4 5 13
16 15 15 16 16 16 15 14 14 13 10 9 9 9 8 8 2 5 10 11 10 10 5 5 3 5 2 2 1 4 3 4 3 4 4 5 3 3 3 4 2 3 8 13 11
16 16 16 16 16 15 16 15 15 13 11 9 8 8 7 5 1 7 2 12 13 8 4 4 2 3 2 2 3 3 2 1 1 5 6 5 3 1 4 4 5 8 11 10 10
15 14 14 15 17 16 16 16 15 12 10 8 8 6 5 1 5 0 3 13 12 8 3 3 2 3 2 3 1 1 3 2 0 4 4 7 4 3 4 3 7 8 12 9 9
16 16 16 16 17 16 15 15 16 12 10 8 6 5 3 1 8 3 7 15 8 6 5 3 2 4 4 1 2 1 2 4 7 7 6 8 5 2 5 7 12 11 9 9 6
16 16 16 16 16 17 16 14 15 13 9 6 5 3 1 2 1 6 9 7 5 5 4 3 3 3 5 3 3 2 4 5 5 6 3 4 3 2 2 5 12 11 9 9 9
17 17 17 17 18 18 18 17 15 12 6 4 4 2 1 11 3 6 7 6 7 5 4 3 3 3 4 4 2 1 4 4 2 3 3 6 4 5 2 6 11 11 7 7 8
18 18 18 19 19 18 19 18 14 6 4 4 4 1 7 3 2 6 2 4 3 2 2 3 6 6 4 3 3 2 2 2 3 5 4 0 3 6 12 8 12 11 9 9 9
18 19 19 21 21 20 19 17 5 2 6 8 2 1 8 4 2 6 5 4 5 3 0 3 4 4 3 4 4 5 1 1 3 8 6 2 3 11 13 6 7 10 10 9 9
18 19 19 20 19 20 18 7 8 10 5 3 3 2 4 4 4 5 3 4 3 4 2 3 5 4 3 4 3 4 2 3 4 7 6 7 9 4 8 5 5 6 8 11 13
19 20 20 21 20 20 5 3 3 3 2 8 5 4 5 3 1 3 5 6 3 5 4 2 4 10 8 7 4 2 3 4 2 5 6 9 6 10 8 7 8 8 7 9 15
20 20 20 22 20 9 3 2 5 4 7 11 13 6 4 2 5 2 5 7 5 5 3 6 8 4 7 6 5 4 4 3 2 1 3 3 12 7 8 12 14 11 8 9 5
20 20 20 24 23 0 2 3 4 5 2 8 6 6 6 9 7 6 8 5 5 5 5 8 6 6 6 4 4 4 6 5 3 4 1 3 7 6 6 6 10 9 7 7 12
20 19 18 27 2 3 4 1 5 5 5 7 4 7 4 8 4 7 7 8 2 11 7 6 6 7 3 5 7 7 9 7 10 4 2 2 6 7 5 7 10 12 12 10 10
21 18 14 7 6 2 2 4 2 3 4 2 3 2 4 9 5 4 5 5 9 7 8 10 5 5 5 9 9 11 7 8 4 4 3 2 2 8 2 6 14 14 13 12 12
20 18 14 2 2 8 8 7 3 8 6 4 4 5 5 1 2 3 5 5 4 6 2 8 2 5 9 5 10 6 8 9 6 3 2 2 6 9 5 7 6 7 15 15 13
23 16 6 2 5 5 6 3 6 4 5 5 1 2 3 5 2 4 7 6 6 5 4 3 5 5 4 2 3 6 7 4 4 2 7 1 4 12 4 7 9 11 14 16 14
27 18 4 5 4 6 3 7 4 3 5 5 5 2 8 5 5 5 6 6 5 5 3 6 7 7 5 9 10 7 8 8 6 5 5 3 6 8 1 5 5 6 10 10 12
20 2 1 4 6 3 6 4 8 5 3 7 8 4 3 0 4 4 8 8 9 9 7 5 7 4 6 5 10 4 3 5 8 3 2 3 8 9 3 2 3 5 8 12 13
4 3 4 4 4 3 6 3 3 3 4 2 2 4 5 5 2 4 7 5 7 12 7 6 4 5 2 5 3 8 8 4 3 4 3 5 6 7 3 5 4 5 8 7 7
3 5 5 3 2 6 4 5 4 5 1 1 1 4 1 2 1 3 5 5 8 6 8 7 4 6 2 4 10 3 2 6 6 4 6 1 7 8 7 6 7 8 8 9 10
3 5 3 2 5 1 2 2 4 4 3 4 3 7 6 5 4 3 6 5 5 9 11 9 6 5 12 4 3 3 6 7 7 5 1 3 8 1 4 5 6 9 7 6 8
4 3 4 3 3 3 5 4 2 4 4 4 3 1 2 6 4 7 6 7 8 7 10 8 4 3 12 6 3 4 4 6 7 4 6 7 8 2 1 4 6 7 6 6 6
3 3 5 6 1 3 4 4 5 4 2 3 3 5 5 3 4 5 4 5 1 5 5 9 3 9 11 11 6 4 6 4 7 5 6 7 5 6 4 5 4 4 5 6 6
5 1 1 3 3 3 2 2 3 5 5 7 4 4 3 4 6 2 4 9 7 5 5 6 7 6 8 6 5 7 9 9 6 7 7 5 9 8 7 7 7 5 6 6 5
3 4 5 2 4 4 5 3 3 5 3 4 3 9 6 2 3 5 2 3 6 7 4 3 4 5 4 4 7 6 9 9 3 4 2 4 7 7 5 7 5 7 7 5 5
2 2 3 3 4 2 1 4 5 6 6 3 7 6 5 3 5 14 11 10 10 3 4 0 5 1 3 4 4 1 11 11 6 5 8 6 11 6 4 8 9 9 8 8 7
Wind_Direction
3 360 357 355 354 352 349 348 341 329 316 308 311 308 316 321 307 175 240 205 188 141 112 123 131 210 87 131 109 119 65 239 248 162 192 132 143 191 256 135 177 69 146 140 125
359 358 354 351 349 346 343 341 339 329 315 306 304 306 315 330 325 255 237 162 113 141 112 163 181 147 63 133 82 92 113 232 200 174 134 145 77 6 166 129 51 56 80 119 130
355 353 351 347 340 335 337 336 335 330 313 299 291 299 310 321 328 247 211 175 164 173 137 175 133 151 103 112 161 164 226 287 266 139 135 129 31 220 142 195 194 180 153 141 137
350 348 338 330 328 328 327 328 331 329 311 295 285 291 301 267 168 338 354 155 155 156 143 135 134 91 98 185 153 118 34 198 152 153 131 140 130 177 210 202 141 151 152 145 155
340 334 331 329 327 327 323 321 326 323 309 288 278 278 272 18 254 30 83 132 118 136 163 170 132 142 168 89 118 40 135 54 91 83 59 103 70 288 195 127 118 133 159 156 164
336 332 329 328 329 327 325 321 322 315 302 278 260 267 217 245 260 118 114 118 121 128 184 165 186 149 107 64 55 9 100 105 59 101 75 90 36 6 33 136 137 155 178 174 181
333 333 331 330 333 332 329 326 321 307 283 249 225 253 90 238 25 146 137 154 158 162 150 205 164 78 117 74 68 292 91 92 154 121 120 108 15 215 342 163 161 175 190 189 208
333 332 331 332 335 335 333 327 318 300 204 178 182 283 245 251 109 130 171 112 161 159 129 134 92 100 71 129 34 42 60 105 205 166 176 273 249 244 223 201 182 178 189 201 217
332 331 330 334 333 333 330 325 311 127 130 148 112 155 270 316 194 200 170 144 139 132 270 154 69 102 83 85 16 8 317 242 196 204 140 193 240 206 225 212 220 187 190 206 210
332 329 328 329 321 329 325 306 124 109 124 211 259 352 269 225 182 168 187 142 120 120 100 114 63 78 49 85 224 253 250 251 215 206 169 183 243 255 225 215 188 180 205 215 213
332 329 326 321 324 325 299 96 35 27 187 195 190 227 293 252 96 190 161 98 62 61 145 19 100 224 183 192 198 218 203 238 253 181 167 211 232 221 224 215 226 218 227 223 210
330 329 327 325 329 344 153 86 110 164 301 237 246 266 258 71 2 111 128 112 124 194 104 31 228 153 165 176 216 243 234 227 340 355 178 219 250 221 190 215 220 223 218 202 190
327 328 329 328 323 184 274 224 108 111 199 289 193 192 212 140 214 239 130 122 140 141 178 172 251 142 158 163 180 243 217 178 155 101 284 291 281 220 211 204 198 208 218 191 190
323 325 332 328 331 330 262 122 323 183 50 279 247 266 129 141 235 196 162 139 144 185 159 230 257 248 157 222 148 253 208 228 132 113 247 31 281 295 216 222 221 209 207 195 197
319 323 327 324 298 279 156 308 294 71 358 243 184 104 178 155 162 215 191 69 166 170 122 239 185 150 193 217 164 242 189 193 123 96 43 163 57 266 94 245 229 219 206 200 193
315 317 325 139 240 251 325 322 78 44 257 332 128 157 120 253 145 94 125 84 157 142 213 227 238 166 217 165 184 82 76 46 53 68 348 200 153 282 204 205 243 192 203 196 194
316 309 278 238 226 337 316 38 51 155 320 331 355 104 186 173 184 138 147 170 168 114 239 269 224 239 167 154 89 93 72 24 16 26 226 206 117 248 251 244 231 203 195 194 187
319 315 203 221 289 333 46 55 162 244 261 321 346 282 184 154 221 176 124 194 216 112 120 185 303 185 188 186 179 176 154 152 188 193 244 130 239 253 280 314 259 200 191 174 180
318 355 147 263 216 300 78 87 202 217 314 348 330 56 353 72 169 144 187 203 197 166 181 166 279 257 204 151 133 215 168 192 102 355 52 244 289 297 128 28 139 156 151 178 184
348 347 350 1 149 74 75 216 238 223 335 3 304 41 6 332 45 161 194 216 205 186 148 209 281 227 242 119 43 160 157 82 10 140 224 294 280 243 263 218 144 171 175 185 190
32 55 318 43 30 46 140 230 284 249 242 285 291 327 216 346 284 248 228 260 197 180 141 143 138 286 360 186 179 143 152 59 111 121 156 236 271 220 202 199 197 226 176 180 178
3 52 297 37 46 44 109 222 266 314 341 283 202 214 221 196 266 261 236 235 149 149 166 201 155 236 229 221 216 205 155 134 126 220 100 155 270 158 211 208 208 242 167 185 172
54 281 318 73 76 355 316 310 312 332 328 341 304 347 280 206 226 210 264 256 183 158 169 184 216 281 317 354 26 202 165 118 106 91 189 138 261 112 103 127 201 226 165 176 161
58 28 335 37 35 89 10 300 324 312 253 359 284 26 352 334 263 277 262 278 227 181 194 121 146 175 219 214 153 186 158 152 123 126 169 222 260 284 195 158 185 192 152 160 169
22 30 168 339 353 353 311 289 327 354 336 16 3 20 321 322 327 331 325 329 293 160 96 143 205 184 245 231 171 182 174 168 171 164 152 228 206 238 238 196 190 182 141 152 180
65 24 354 330 319 327 3 30 328 347 300 316 16 320 289 231 203 271 328 253 278 333 193 191 225 166 278 205 193 185 190 157 149 133 131 140 251 196 170 106 139 168 156 176 204
337 7 99 309 348 28 319 342 334 357 280 281 339 309 275 296 294 266 237 241 259 333 302 194 157 147 260 319 139 28 188 181 176 169 148 159 225 168 156 171 182 174 176 184 197